Weather History for Jackson, TN

Change the Weather History Date:

Friday, January 13, 2012

  Actual Average Record
Temperature  
Mean Temperature 31 °F 38 °F  
Max Temperature 39 °F 48 °F 76 °F (1960)
Min Temperature 22 °F 28 °F 6 °F (2011)
Degree Days  
Heating Degree Days 34 27  
Month to date heating degree days 276 351  
Since 1 July heating degree days 1556 1769  
Cooling Degree Days 0 0  
Month to date cooling degree days 0 0  
Year to date cooling degree days 0 0  
Moisture  
Dew Point 16 °F    
Average Humidity 57    
Maximum Humidity 74    
Minimum Humidity 40    
Precipitation  
Precipitation 0.00 in 0.12 in 2.87 in (2013)
Month to date precipitation 0.93 1.67  
Year to date precipitation 0.93 1.67  
Snow  
Snow 0.00 in 0.10 in 2.00 in (1968)
Month to date snowfall T 0.9  
Since 1 July snowfall 3.3 1.2  
Snow Depth 0.00 in    
Sea Level Pressure  
Sea Level Pressure 30.15 in    
Wind  
Wind Speed 9 mph (WSW)    
Max Wind Speed 18 mph    
Max Gust Speed 24 mph    
Visibility 10 miles    
Events      
T = Trace of Precipitation, MM = Missing Value Source: NWS Daily Summary

Daily Weather History Graph

Daily Weather History Graph

Search for Another Location

Airport:

Trip Planner

Search our weather history database for the weather conditions in past years. The results will help you decide how hot, cold, wet, or windy it might be!

Date:

Astronomy

Jan. 13, 2012 Rise Set
Actual Time 7:05 AM CST 5:03 PM CST
Civil Twilight 6:37 AM CST 5:31 PM CST
Nautical Twilight 6:05 AM CST 6:02 PM CST
Astronomical Twilight 5:35 AM CST 6:33 PM CST
Moon 10:03 PM CST (1/13) 9:30 AM CST (1/13)
Length of Visible Light 10h 54m
Length of Day
9h 58m
Waning Gibbous, 78% of the Moon is Illuminated
Jan 13
Waning Gibbous
Jan 16
Last Quarter
Jan 23
New
Jan 30
First Quarter
Feb 7
Full

Hourly Weather History & Observations

Time (CST) Temp. Windchill Dew Point Humidity Pressure Visibility Wind Dir Wind Speed Gust Speed Precip Events Conditions
12:53 AM 27.0 °F 18.0 °F 15.1 °F 61% 30.04 in 10.0 mi West 9.2 mph - N/A   Overcast
1:53 AM 27.0 °F 18.0 °F 16.0 °F 63% 30.04 in 10.0 mi West 9.2 mph - N/A   Overcast
2:53 AM 27.0 °F 17.3 °F 16.0 °F 63% 30.04 in 10.0 mi West 10.4 mph - N/A   Overcast
3:53 AM 27.0 °F 16.7 °F 17.1 °F 66% 30.06 in 10.0 mi West 11.5 mph - N/A   Overcast
4:53 AM 27.0 °F 17.3 °F 12.9 °F 56% 30.08 in 10.0 mi NW 10.4 mph 18.4 mph N/A   Overcast
5:53 AM 26.1 °F 16.8 °F 16.0 °F 66% 30.09 in 10.0 mi West 9.2 mph - N/A   Overcast
6:53 AM 23.0 °F 14.7 °F 16.0 °F 74% 30.12 in 10.0 mi WSW 6.9 mph - N/A   Clear
7:53 AM 24.8 °F 16.1 °F 17.6 °F 74% 30.12 in 10.0 mi WSW 8.1 mph - N/A   Clear
8:53 AM 28.9 °F 19.8 °F 16.0 °F 58% 30.16 in 10.0 mi West 10.4 mph 17.3 mph N/A   Clear
9:53 AM 30.0 °F 19.5 °F 15.1 °F 54% 30.18 in 10.0 mi West 13.8 mph - N/A   Clear
10:53 AM 33.1 °F 23.9 °F 16.0 °F 50% 30.17 in 10.0 mi West 12.7 mph - N/A   Clear
11:53 AM 34.0 °F 25.0 °F 16.0 °F 48% 30.17 in 10.0 mi SW 12.7 mph - N/A   Clear
12:53 PM 37.0 °F 27.7 °F 16.0 °F 42% 30.15 in 10.0 mi WSW 16.1 mph 20.7 mph N/A   Clear
1:53 PM 37.9 °F 30.5 °F 16.0 °F 41% 30.15 in 10.0 mi West 11.5 mph 20.7 mph N/A   Clear
2:53 PM 37.9 °F 30.0 °F 16.0 °F 41% 30.14 in 10.0 mi WSW 12.7 mph - N/A   Clear
3:53 PM 37.9 °F 30.5 °F 15.1 °F 39% 30.15 in 10.0 mi WSW 11.5 mph - N/A   Clear
4:53 PM 35.1 °F 28.6 °F 15.1 °F 44% 30.16 in 10.0 mi WSW 8.1 mph - N/A   Clear
5:53 PM 30.9 °F 26.2 °F 17.1 °F 57% 30.18 in 10.0 mi WSW 4.6 mph - N/A   Clear
6:53 PM 30.9 °F - 17.1 °F 57% 30.20 in 10.0 mi Calm Calm - N/A   Mostly Cloudy
7:53 PM 28.9 °F 22.8 °F 17.1 °F 61% 30.21 in 10.0 mi SW 5.8 mph - N/A   Clear
8:53 PM 27.0 °F 20.5 °F 16.0 °F 63% 30.21 in 10.0 mi SW 5.8 mph - N/A   Clear
9:53 PM 28.0 °F 20.0 °F 16.0 °F 61% 30.22 in 10.0 mi SW 8.1 mph - N/A   Clear
10:53 PM 28.0 °F 21.7 °F 16.0 °F 61% 30.22 in 10.0 mi WSW 5.8 mph - N/A   Clear
11:53 PM 26.1 °F 19.4 °F 17.1 °F 69% 30.23 in 10.0 mi SW 5.8 mph - N/A   Clear